Location: Boncourt
(49.6160°N, 3.9448°E)
Time: 14:46:33
(UTC+00:00)

Cosmos-2242 - Pass Details

Date: 09 February 2023
Orbit: 587 x 612 km, 82.5° (Epoch: 25 March)

Event Time Altitude Azimuth Distance (km) Brightness Sun altitude
Rises 18:12:01 0° 355° (N) 2,831 6.4 -13.2°
Reaches altitude 10° 18:14:19 10° 2° (N) 1,925 5.5 -13.6°
Maximum altitude 18:18:22 43° 75° (ENE) 841 3.3 -14.3°
Drops below altitude 10° 18:22:24 10° 147° (SSE) 1,915 5.3 -14.9°
Sets 18:24:41 0° 154° (SSE) 2,815 6.2 -15.3°
